Location: Savignano sul Rubicone
(44.0950°N, 12.4090°E)
Time: 01:00:51
(UTC+01:00)

Tiangong 2 - Visible Passes

Search period start: 17 February 2019 00:00
Search period end: 27 February 2019 00:00
Orbit: 381 x 390 km, 42.8° (Epoch: 16 February)

Date Brightness Start Highest point End Pass type
(mag) Time Alt. Az. Time Alt. Az. Time Alt. Az.
17 Feb 1.8 19:00:20 10° W 19:03:23 46° SSW 19:04:43 27° SE visible
18 Feb 3.1 19:38:08 10° W 19:40:39 22° SSW 19:40:44 22° SSW visible
19 Feb 2.6 18:38:41 10° W 18:41:34 32° SSW 18:44:26 10° SE visible
20 Feb 3.9 19:16:59 10° WSW 19:18:42 14° SSW 19:20:25 10° S visible
21 Feb 3.4 18:17:08 10° W 18:19:40 22° SSW 18:22:09 10° SSE visible
